Ballenas Island, British Columbia

10:54 PM PDT on September 30, 2016 (GMT -0700)
Ballenas Island

Weather History for 71769 - November, 2013

Change the Weather History Date:

Thursday, November 21, 2013

  Actual Average Record
Temperature  
Mean Temperature 39 °F -  
Max Temperature 44 °F - - ()
Min Temperature 34 °F - - ()
Degree Days  
Heating Degree Days 26    
Moisture  
Dew Point 31 °F    
Average Humidity 72    
Maximum Humidity 85    
Minimum Humidity 61    
Precipitation  
Precipitation 0.00 in - - ()
Sea Level Pressure  
Sea Level Pressure 30.63 in    
Wind  
Wind Speed 4 mph ()    
Max Wind Speed 8 mph    
Max Gust Speed -    
T = Trace of Precipitation, MM = Missing Value Source: Averaged Metar Reports

Daily Weather History Graph

Daily Weather History Graph

Search for Another Location

Airport or City:

Trip Planner

Search our weather history database for the weather conditions in past years. The results will help you decide how hot, cold, wet, or windy it might be!

Date:

Astronomy

Nov. 21, 2013 Rise Set
Actual Time 7:37 AM PST 4:27 PM PST
Civil Twilight 7:01 AM PST 5:03 PM PST
Nautical Twilight 6:22 AM PST 5:42 PM PST
Astronomical Twilight 5:44 AM PST 6:20 PM PST
Moon 8:13 PM PST (11/21) 10:44 AM PST (11/21)
Length of Visible Light 10h 01m
Length of Day
8h 50m
Waning Gibbous, 84% of the Moon is Illuminated
Nov 21
Waning Gibbous
Nov 25
Last Quarter
Dec 2
New
Dec 9
First Quarter
Dec 17
Full

Hourly Weather History & Observations

Time (PST) Temp. Windchill Dew Point Humidity Pressure Visibility Wind Dir Wind Speed Gust Speed Precip Events Conditions
12:00 AM 37.2 °F 31.9 °F 26.6 °F 65% 30.53 in - SW 6.9 mph - N/A   Unknown
1:00 AM 35.8 °F - 25.5 °F 66% 30.54 in - SSW 2.3 mph - N/A   Unknown
2:00 AM 36.5 °F 33.9 °F 25.5 °F 64% 30.55 in - SSW 3.5 mph - N/A   Unknown
3:00 AM 36.0 °F 32.1 °F 26.8 °F 69% 30.57 in - SSW 4.6 mph - N/A   Unknown
4:00 AM 35 °F - 27 °F 61% 30.58 in - SW 4.6 mph - -  
4:00 AM 34.9 °F 30.8 °F 26.6 °F 72% 30.58 in - SW 4.6 mph - N/A   Unknown
5:00 AM 36.3 °F 30.1 °F 28.0 °F 72% 30.60 in - WSW 8.1 mph - N/A   Unknown
6:00 AM 35.8 °F 29.4 °F 27.1 °F 71% 30.61 in - SW 8.1 mph - N/A   Unknown
7:00 AM 36.1 °F 29.9 °F 27.7 °F 71% 30.62 in - SW 8.1 mph - N/A   Unknown
8:00 AM 36.3 °F 30.8 °F 28.8 °F 74% 30.62 in - SW 6.9 mph - N/A   Unknown
9:00 AM 37.6 °F 33.1 °F 29.1 °F 72% 30.64 in - SW 5.8 mph - N/A   Unknown
10:00 AM 38 °F - 30 °F 63% 30.66 in - SW 4.6 mph - -  
10:00 AM 38.3 °F 34.8 °F 29.8 °F 72% 30.66 in - SW 4.6 mph - N/A   Unknown
11:00 AM 40.3 °F - 31.6 °F 71% 30.67 in - West 2.3 mph - N/A   Unknown
12:00 PM 43.2 °F - 34.3 °F 71% 30.65 in - NNW 1.2 mph - N/A   Unknown
1:00 PM 42.1 °F 40.2 °F 33.6 °F 72% 30.66 in - NW 3.5 mph - N/A   Unknown
2:00 PM 43.5 °F - 34.5 °F 71% 30.66 in - NW 1.2 mph - N/A   Unknown
3:00 PM 42.3 °F - 31.3 °F 65% 30.65 in - North 2.3 mph - N/A   Unknown
4:00 PM 42 °F - 33 °F 62% 30.67 in - NNW 1.2 mph - -  
4:00 PM 41.7 °F - 33.4 °F 72% 30.67 in - NNW 1.2 mph - N/A   Unknown
5:00 PM 41.0 °F 37.1 °F 33.8 °F 76% 30.68 in - WNW 5.8 mph - N/A   Unknown
6:00 PM 39.9 °F - 31.6 °F 72% 30.66 in - NNW 1.2 mph - N/A   Unknown
7:00 PM 38.7 °F 35.2 °F 33.1 °F 80% 30.66 in - SSW 4.6 mph - N/A   Unknown
8:00 PM 39.0 °F 35.7 °F 34.5 °F 84% 30.66 in - WSW 4.6 mph - N/A   Unknown
9:00 PM 38.3 °F 35.9 °F 34.2 °F 85% 30.67 in - SSW 3.5 mph - N/A   Unknown
10:00 PM 40 °F - 34 °F 73% 30.67 in - SW 1.2 mph - -  
10:00 PM 39.6 °F - 34.3 °F 82% 30.67 in - SW 1.2 mph - N/A   Unknown
11:00 PM 38.8 °F - 34.2 °F 83% 30.68 in - SSW 2.3 mph - N/A   Unknown